User: anonymous   Login
Location: York
(31.8935°S, 116.7682°E)
Time: 12:23:20
(UTC+08:00)
Language:

S-56A Canister/Altair - Orbit

View from above orbital plane
View from above orbital plane
View from above satellite
View from above satellite

Ground track
Ground track

The orbit data is extracted from the following two-line orbital elements,

1 00082U 61004B   22267.57521419  .00000005  00000-0  50120-4 0  9991
2 00082  38.8564   8.4494 1169824 124.8417 246.7960 12.26023853909579
Epoch (UTC): 24 September 2022 13:48:18
Eccentricity: 0.1169824
inclination: 38.8564°
perigee height: 637 km
apogee height: 2496 km
right ascension of ascending node: 8.4494°
argument of perigee: 124.8417°
revolutions per day: 12.26023853
mean anomaly at epoch: 246.7960°
orbit number at epoch: 90957

The dashed part of the orbit path shows where the satellite is in the earth's shadow,  

DLR